Regional Weather Roundup
Issued by NWS Binghamton, NY

Home | Current Version | Previous Version | Text Only | Print | Product List | Glossary On
Versions: 1 2 3 4 5 6 7 8 9 10 11 12 13 14 15 16 17 18 19 20 21 22 23 24 25 26 27 28 29 30 31 32 33 34 35 36 37 38 39 40 41 42 43 44 45 46 47 48 49 50
000
ASUS41 KBGM 300510
RWRBGM
RWRBGM
BINGHAMTON REGIONAL WEATHER ROUNDUP
NATIONAL WEATHER SERVICE BINGHAMTON NY
100 AM EDT WED JUL 30 2014

Note: "fair" indicates few or no clouds below 12,000 feet with no
significant weather and/or obstructions to visibility.

* = Station(s) that does not report precipitation, such as rain,
snow, etc, also no thunder or fog.

!NYZ009-015>018-022>025-036-037-044>046-055>057-062-300600
...CENTRAL NEW YORK...

CITY           SKY/WX    TMP DP  RH WIND       PRES   REMARKS
BINGHAMTON     PTCLDY    56  51  84 SW3       30.01S
CORTLAND       FAIR      52  52 100 CALM      30.02S
DANSVILLE      CLEAR     54  51  90 SE9       30.01F
ELMIRA         CLEAR     51  51 100 CALM      30.01R FOG
ITHACA         PTCLDY    54  53  96 CALM      30.02R
HAMILTON       CLEAR     52  50  93 CALM      30.02R
MONTICELLO     CLOUDY    55  54  94 CALM      30.02S
NORWICH        CLOUDY    55  54  94 CALM      30.02R
ONEONTA        MOCLDY    54  52  94 CALM      30.02R
PENN YAN       CLEAR     57  55  93 SW5       30.00S
ROME           CLEAR     52  50  93 CALM      30.01R
SIDNEY         CLOUDY    57  57 100 CALM      30.01S
SYRACUSE       PTCLDY    57  52  83 CALM      29.98S
$$

!PAZ038>040-043-044-047-048-072-300600
...NORTHEAST PENNSYLVANIA...

CITY           SKY/WX    TMP DP  RH WIND       PRES   REMARKS
HAZLETON       CLEAR     50  48  93 CALM      30.05S FOG
SCRANTON       CLEAR     55  51  86 SE3       30.01S
TOWANDA*       PTCLDY    54  54 100 SW3       30.02S
$$
&&
KEY
WCI = WIND CHILL INDEX
VSB = VISIBILITY
HX  = HEAT INDEX
$$


USA.gov is the U.S. government's official web portal to all federal, state and local government web resources and services.